Location: Cossonay
(46.5833°N, 6.4167°E)
Time: 01:23:29
(UTC+00:00)

Cosmos 2333 Rocket - Pass Details

Date: 07 June 2020
Orbit: 838 x 863 km, 70.8° (Epoch: 15 July)

Event Time Altitude Azimuth Distance (km) Brightness Sun altitude
Exits shadow 02:37:37 - 183° (S) 3,029 4.6 -9.1°
Reaches altitude 10° 02:39:12 10° 179° (S) 2,448 4.2 -8.9°
Maximum altitude 02:44:31 45° 108° (ESE) 1,136 3.1 -8.3°
Drops below altitude 10° 02:49:53 10° 38° (NE) 2,477 6.4 -7.6°
Sets 02:52:26 0° 32° (NNE) 3,421 7.3 -7.3°
